Year,Month,Day,Hour,Minute,Value (Times are PST for temperature in C)
2009,07,27,09,08,25.30
2009,07,27,09,09,25.30
2009,07,27,09,10,25.30
2009,07,27,09,11,25.40
2009,07,27,09,12,25.40
2009,07,27,09,13,25.40
2009,07,27,09,14,25.40
2009,07,27,09,15,25.30
2009,07,27,09,16,25.30
2009,07,27,09,17,25.30
2009,07,27,09,18,25.30
2009,07,27,09,19,25.30
2009,07,27,09,20,25.40
2009,07,27,09,21,25.40
2009,07,27,09,22,25.50
2009,07,27,09,23,25.50
2009,07,27,09,24,25.60
2009,07,27,09,25,25.60
2009,07,27,09,26,25.60
2009,07,27,09,27,25.60
2009,07,27,09,28,25.60
2009,07,27,09,29,25.60
2009,07,27,09,30,25.70
2009,07,27,09,31,25.80
2009,07,27,09,32,25.80
2009,07,27,09,33,25.80
2009,07,27,09,34,25.80
2009,07,27,09,35,25.90
2009,07,27,09,36,25.90
2009,07,27,09,37,25.90
2009,07,27,09,38,25.90
2009,07,27,09,39,25.90
2009,07,27,09,40,25.90
2009,07,27,09,41,25.90
2009,07,27,09,42,25.90
2009,07,27,09,43,25.90
2009,07,27,09,44,25.90
2009,07,27,09,45,25.90
2009,07,27,09,46,25.90
2009,07,27,09,47,25.70
2009,07,27,09,48,25.60
2009,07,27,09,49,25.50
2009,07,27,09,50,25.50
2009,07,27,09,51,25.50
2009,07,27,09,52,25.50
2009,07,27,09,53,25.50
2009,07,27,09,54,25.50
2009,07,27,09,55,25.50
2009,07,27,09,56,25.50
2009,07,27,09,57,25.40
2009,07,27,09,58,25.40
2009,07,27,09,59,25.40
2009,07,27,10,00,25.30
2009,07,27,10,01,25.30
2009,07,27,10,02,25.30
2009,07,27,10,03,25.30
2009,07,27,10,04,25.40
2009,07,27,10,05,25.50
2009,07,27,10,06,25.60
2009,07,27,10,07,25.70
2009,07,27,10,08,25.70
2009,07,27,10,09,25.70
2009,07,27,10,10,25.80
2009,07,27,10,11,25.80
2009,07,27,10,12,25.70
2009,07,27,10,13,25.80
2009,07,27,10,14,25.90
2009,07,27,10,15,25.90
2009,07,27,10,16,25.90
2009,07,27,10,17,26.00
2009,07,27,10,18,26.10
2009,07,27,10,19,26.10
2009,07,27,10,20,26.20
2009,07,27,10,21,26.20
2009,07,27,10,22,26.10
2009,07,27,10,23,26.10
2009,07,27,10,24,26.10
2009,07,27,10,25,26.00
2009,07,27,10,26,26.00
2009,07,27,10,27,26.00
2009,07,27,10,28,26.00
2009,07,27,10,29,26.00
2009,07,27,10,30,26.00
2009,07,27,10,31,26.10
2009,07,27,10,32,26.10
2009,07,27,10,33,26.20
2009,07,27,10,34,26.20
2009,07,27,10,35,26.20
2009,07,27,10,36,26.20
2009,07,27,10,37,26.20
2009,07,27,10,38,26.30
2009,07,27,10,39,26.40
2009,07,27,10,40,26.50
2009,07,27,10,41,26.70
2009,07,27,10,42,26.70
2009,07,27,10,43,26.80
2009,07,27,10,44,26.80
2009,07,27,10,45,26.90
2009,07,27,10,46,26.90
2009,07,27,10,47,27.00
2009,07,27,10,48,27.10
2009,07,27,10,49,27.10
2009,07,27,10,50,27.10
2009,07,27,10,51,27.20
2009,07,27,10,52,27.20
2009,07,27,10,53,27.20
2009,07,27,10,54,27.10
2009,07,27,10,55,27.10
2009,07,27,10,56,27.10
2009,07,27,10,57,27.10
2009,07,27,10,58,27.10
2009,07,27,10,59,27.00
2009,07,27,11,00,26.90
2009,07,27,11,01,26.80
2009,07,27,11,02,26.80
2009,07,27,11,03,26.80
2009,07,27,11,04,26.90
2009,07,27,11,05,26.90
2009,07,27,11,06,26.90
2009,07,27,11,07,26.90
2009,07,27,11,08,26.80
2009,07,27,11,09,26.80
2009,07,27,11,10,26.80
2009,07,27,11,11,26.90
2009,07,27,11,12,27.00
2009,07,27,11,13,27.00
2009,07,27,11,14,27.10
2009,07,27,11,15,27.10
2009,07,27,11,16,27.00
2009,07,27,11,17,27.00
2009,07,27,11,18,27.00
2009,07,27,11,19,27.10
2009,07,27,11,20,27.00
2009,07,27,11,21,27.00
2009,07,27,11,22,26.90
2009,07,27,11,23,26.90
2009,07,27,11,24,27.00
2009,07,27,11,25,27.10
2009,07,27,11,26,27.10
2009,07,27,11,27,27.10
2009,07,27,11,28,27.10
2009,07,27,11,29,27.10
2009,07,27,11,30,27.10
2009,07,27,11,31,27.10
2009,07,27,11,32,27.20
2009,07,27,11,33,27.20
2009,07,27,11,34,27.20
2009,07,27,11,35,27.20
2009,07,27,11,36,27.20
2009,07,27,11,37,27.30
2009,07,27,11,38,27.30
2009,07,27,11,39,27.30
2009,07,27,11,40,27.40
2009,07,27,11,41,27.50
2009,07,27,11,42,27.60
2009,07,27,11,43,27.70
2009,07,27,11,44,27.80
2009,07,27,11,45,27.80
2009,07,27,11,46,27.80
2009,07,27,11,47,27.80
2009,07,27,11,48,27.80
2009,07,27,11,49,27.80
2009,07,27,11,50,27.80
2009,07,27,11,51,27.90
2009,07,27,11,52,28.00
2009,07,27,11,53,28.10
2009,07,27,11,54,28.10
2009,07,27,11,55,28.20
2009,07,27,11,56,28.10
2009,07,27,11,57,28.10
2009,07,27,11,58,27.90
2009,07,27,11,59,27.90
2009,07,27,12,00,27.90
2009,07,27,12,01,27.90
2009,07,27,12,02,27.90
2009,07,27,12,03,28.00
2009,07,27,12,04,28.00
2009,07,27,12,05,28.10
2009,07,27,12,06,28.10
2009,07,27,12,07,28.20
2009,07,27,12,08,28.30
2009,07,27,12,09,28.30
2009,07,27,12,10,28.30
2009,07,27,12,11,28.20
2009,07,27,12,12,28.20
2009,07,27,12,13,28.20
2009,07,27,12,14,28.20
2009,07,27,12,15,28.20
2009,07,27,12,16,28.10
2009,07,27,12,17,28.00
2009,07,27,12,18,27.90
2009,07,27,12,19,27.90
2009,07,27,12,20,28.00
2009,07,27,12,21,28.10
2009,07,27,12,22,28.10
2009,07,27,12,23,28.10
2009,07,27,12,24,28.20
2009,07,27,12,25,28.30
2009,07,27,12,26,28.30
2009,07,27,12,27,28.30
2009,07,27,12,28,28.30
2009,07,27,12,29,28.20
2009,07,27,12,30,28.10
2009,07,27,12,31,28.00
2009,07,27,12,32,27.90
2009,07,27,12,33,27.90
2009,07,27,12,34,27.80
2009,07,27,12,35,27.90
2009,07,27,12,36,28.00
2009,07,27,12,37,28.10
2009,07,27,12,38,28.10
2009,07,27,12,39,28.20
2009,07,27,12,40,28.10
2009,07,27,12,41,28.10
2009,07,27,12,42,28.10
2009,07,27,12,43,28.10
2009,07,27,12,44,28.10
2009,07,27,12,45,28.10
2009,07,27,12,46,28.00
2009,07,27,12,47,27.90
2009,07,27,12,48,27.90
2009,07,27,12,49,28.00
2009,07,27,12,50,28.10
2009,07,27,12,51,28.20
2009,07,27,12,52,28.20
2009,07,27,12,53,28.20
2009,07,27,12,54,28.20
2009,07,27,12,55,28.20
2009,07,27,12,56,28.20
2009,07,27,12,57,28.20
2009,07,27,12,58,28.20
2009,07,27,12,59,28.20
2009,07,27,13,00,28.10
2009,07,27,13,01,28.10
2009,07,27,13,02,28.10
2009,07,27,13,03,28.10
2009,07,27,13,04,28.20
2009,07,27,13,05,28.20
2009,07,27,13,06,28.20
2009,07,27,13,07,28.20
2009,07,27,13,08,28.20
2009,07,27,13,09,28.20
2009,07,27,13,10,28.20
2009,07,27,13,11,28.20
2009,07,27,13,12,28.20
2009,07,27,13,13,28.20
2009,07,27,13,14,28.20
2009,07,27,13,15,28.30
2009,07,27,13,16,28.40
2009,07,27,13,17,28.40
2009,07,27,13,18,28.30
2009,07,27,13,19,28.30
2009,07,27,13,20,28.30
2009,07,27,13,21,28.20
2009,07,27,13,22,28.20
2009,07,27,13,23,28.20
2009,07,27,13,24,28.30
2009,07,27,13,25,28.40
2009,07,27,13,26,28.50
2009,07,27,13,27,28.50
2009,07,27,13,28,28.60
2009,07,27,13,29,28.60
2009,07,27,13,30,28.60
2009,07,27,13,31,28.70
2009,07,27,13,32,28.70
2009,07,27,13,33,28.60
2009,07,27,13,34,28.60
2009,07,27,13,35,28.60
2009,07,27,13,36,28.50
2009,07,27,13,37,28.60
2009,07,27,13,38,28.60
2009,07,27,13,39,28.70
2009,07,27,13,40,28.80
2009,07,27,13,41,28.80
2009,07,27,13,42,29.00
2009,07,27,13,43,29.10
2009,07,27,13,44,29.10
2009,07,27,13,45,29.20
2009,07,27,13,46,29.20
2009,07,27,13,47,29.20
2009,07,27,13,48,29.20
2009,07,27,13,49,29.20
2009,07,27,13,50,29.20
2009,07,27,13,51,29.20
2009,07,27,13,52,29.30
2009,07,27,13,53,29.30
2009,07,27,13,54,29.30
2009,07,27,13,55,29.40
2009,07,27,13,56,29.40
2009,07,27,13,57,29.40
2009,07,27,13,58,29.40
2009,07,27,13,59,29.40
2009,07,27,14,00,29.40
2009,07,27,14,01,29.40
2009,07,27,14,02,29.40
2009,07,27,14,03,29.50
2009,07,27,14,04,29.60
2009,07,27,14,05,29.70
2009,07,27,14,06,29.70
2009,07,27,14,07,29.60
2009,07,27,14,08,29.60
2009,07,27,14,09,29.50
2009,07,27,14,10,29.50
2009,07,27,14,11,29.50
2009,07,27,14,12,29.40
2009,07,27,14,13,29.40
2009,07,27,14,14,29.40
2009,07,27,14,15,29.50
2009,07,27,14,16,29.60
2009,07,27,14,17,29.60
2009,07,27,14,18,29.80
2009,07,27,14,19,29.90
2009,07,27,14,20,29.90
2009,07,27,14,21,29.90
2009,07,27,14,22,30.00
2009,07,27,14,23,30.10
2009,07,27,14,24,30.30
2009,07,27,14,25,30.30
2009,07,27,14,26,30.30
2009,07,27,14,27,30.20
2009,07,27,14,28,30.20
2009,07,27,14,29,30.30
2009,07,27,14,30,30.30
2009,07,27,14,31,30.40
2009,07,27,14,32,30.40
2009,07,27,14,33,30.40
2009,07,27,14,34,30.30
2009,07,27,14,35,30.20
2009,07,27,14,36,30.10
2009,07,27,14,37,29.90
2009,07,27,14,38,29.80
2009,07,27,14,39,29.80
2009,07,27,14,40,29.90
2009,07,27,14,41,30.00
2009,07,27,14,42,30.10
2009,07,27,14,43,30.20
2009,07,27,14,44,30.30
2009,07,27,14,45,30.30
2009,07,27,14,46,30.30
2009,07,27,14,47,30.20
2009,07,27,14,48,29.90
2009,07,27,14,49,29.60
2009,07,27,14,50,29.40
2009,07,27,14,51,29.20
2009,07,27,14,52,29.00
2009,07,27,14,53,28.80
2009,07,27,14,54,28.80
2009,07,27,14,55,28.70
2009,07,27,14,56,28.40
2009,07,27,14,57,28.20
2009,07,27,14,58,28.00
2009,07,27,14,59,27.80
2009,07,27,15,00,27.80
2009,07,27,15,01,27.90
2009,07,27,15,02,28.00
2009,07,27,15,03,28.10
2009,07,27,15,04,28.00
2009,07,27,15,05,28.00
2009,07,27,15,06,28.00
2009,07,27,15,07,27.90
2009,07,27,15,08,27.90
2009,07,27,15,09,27.90
2009,07,27,15,10,27.90
2009,07,27,15,11,28.00
2009,07,27,15,12,28.20
2009,07,27,15,13,28.20
2009,07,27,15,14,28.30
2009,07,27,15,15,28.40
2009,07,27,15,16,28.40
2009,07,27,15,17,28.40
2009,07,27,15,18,28.40
2009,07,27,15,19,28.30
2009,07,27,15,20,28.20
2009,07,27,15,21,28.10
2009,07,27,15,22,28.10
2009,07,27,15,23,28.10
2009,07,27,15,24,28.10
2009,07,27,15,25,28.10
2009,07,27,15,26,28.30
2009,07,27,15,27,28.40
2009,07,27,15,28,28.60
2009,07,27,15,29,28.80
2009,07,27,15,30,29.00
2009,07,27,15,31,29.10
2009,07,27,15,32,29.20
2009,07,27,15,33,29.20
2009,07,27,15,34,29.20
2009,07,27,15,35,29.20
2009,07,27,15,36,29.30
2009,07,27,15,37,29.40
2009,07,27,15,38,29.60
2009,07,27,15,39,29.80
2009,07,27,15,40,29.90
2009,07,27,15,41,30.00
2009,07,27,15,42,29.90
2009,07,27,15,43,29.90
2009,07,27,15,44,30.00
2009,07,27,15,45,29.90
2009,07,27,15,46,29.80
2009,07,27,15,47,29.70
2009,07,27,15,48,29.60
2009,07,27,15,49,29.50
2009,07,27,15,50,29.60
2009,07,27,15,51,29.70
2009,07,27,15,52,29.70
2009,07,27,15,53,29.70
2009,07,27,15,54,29.80
2009,07,27,15,55,29.80
2009,07,27,15,56,29.90
2009,07,27,15,57,29.90
2009,07,27,15,58,29.90
2009,07,27,15,59,29.90
2009,07,27,16,00,29.80
2009,07,27,16,01,29.80
2009,07,27,16,02,29.80
2009,07,27,16,03,29.80
2009,07,27,16,04,29.90
2009,07,27,16,05,29.90
2009,07,27,16,06,29.90
2009,07,27,16,07,29.80
2009,07,27,16,08,29.80
2009,07,27,16,09,29.80
2009,07,27,16,10,29.80
2009,07,27,16,11,29.70
2009,07,27,16,12,29.80
2009,07,27,16,13,29.80
2009,07,27,16,14,29.70
2009,07,27,16,15,29.70
2009,07,27,16,16,29.60
2009,07,27,16,17,29.50
2009,07,27,16,18,29.50
2009,07,27,16,19,29.60
2009,07,27,16,20,29.70
2009,07,27,16,21,29.80
2009,07,27,16,22,29.80
2009,07,27,16,23,29.90
2009,07,27,16,24,29.90
2009,07,27,16,25,29.90
2009,07,27,16,26,29.90
2009,07,27,16,27,30.00
2009,07,27,16,28,30.10
2009,07,27,16,29,30.20
2009,07,27,16,30,30.20
2009,07,27,16,31,30.30
2009,07,27,16,32,30.30
2009,07,27,16,33,30.40
2009,07,27,16,34,30.40
2009,07,27,16,35,30.40
2009,07,27,16,36,30.40
2009,07,27,16,37,30.40
2009,07,27,16,38,30.50
2009,07,27,16,39,30.60
2009,07,27,16,40,30.60
2009,07,27,16,41,30.60
2009,07,27,16,42,30.60
2009,07,27,16,43,30.60
2009,07,27,16,44,30.60
2009,07,27,16,45,30.60
2009,07,27,16,46,30.80
2009,07,27,16,47,31.00
2009,07,27,16,48,31.10
2009,07,27,16,49,31.10
2009,07,27,16,50,31.20
2009,07,27,16,51,31.20
2009,07,27,16,52,31.20
2009,07,27,16,53,31.20
2009,07,27,16,54,31.30
2009,07,27,16,55,31.30
2009,07,27,16,56,31.30
2009,07,27,16,57,31.30
2009,07,27,16,58,31.40
2009,07,27,16,59,31.40
2009,07,27,17,00,31.40
2009,07,27,17,01,31.50
2009,07,27,17,02,31.60
2009,07,27,17,03,31.60
2009,07,27,17,04,31.70
2009,07,27,17,05,31.70
2009,07,27,17,06,31.70
2009,07,27,17,07,31.60
2009,07,27,17,08,31.60
2009,07,27,17,09,31.50
2009,07,27,17,10,31.50
2009,07,27,17,11,31.50
2009,07,27,17,12,31.50
2009,07,27,17,13,31.50
2009,07,27,17,14,31.40
2009,07,27,17,15,31.30
2009,07,27,17,16,31.30
2009,07,27,17,17,31.20
2009,07,27,17,18,31.10
2009,07,27,17,19,31.00
2009,07,27,17,20,30.90
2009,07,27,17,21,30.70
2009,07,27,17,22,30.60
2009,07,27,17,23,30.60
2009,07,27,17,24,30.60
2009,07,27,17,25,30.70
2009,07,27,17,26,30.80
2009,07,27,17,27,30.90
2009,07,27,17,28,31.00
2009,07,27,17,29,31.00
2009,07,27,17,30,31.10
2009,07,27,17,31,31.10
2009,07,27,17,32,31.10
2009,07,27,17,33,31.20
2009,07,27,17,34,31.10
2009,07,27,17,35,31.10
2009,07,27,17,36,31.10
2009,07,27,17,37,31.00
2009,07,27,17,38,31.00
2009,07,27,17,39,30.90
2009,07,27,17,40,30.90
2009,07,27,17,41,30.90
2009,07,27,17,42,30.80
2009,07,27,17,43,30.90
2009,07,27,17,44,30.90
2009,07,27,17,45,30.90
2009,07,27,17,46,30.80
2009,07,27,17,47,30.80
2009,07,27,17,48,30.70
2009,07,27,17,49,30.70
2009,07,27,17,50,30.70
2009,07,27,17,51,30.60
2009,07,27,17,52,30.60
2009,07,27,17,53,30.60
2009,07,27,17,54,30.60
2009,07,27,17,55,30.60
2009,07,27,17,56,30.60
2009,07,27,17,57,30.50
2009,07,27,17,58,30.50
2009,07,27,17,59,30.40
2009,07,27,18,00,30.40
2009,07,27,18,01,30.40
2009,07,27,18,02,30.40
2009,07,27,18,03,30.30
2009,07,27,18,04,30.30
2009,07,27,18,05,30.30
2009,07,27,18,06,30.30
2009,07,27,18,07,30.30
2009,07,27,18,08,30.20
2009,07,27,18,09,30.00
2009,07,27,18,10,29.90
2009,07,27,18,11,29.80
2009,07,27,18,12,29.80
2009,07,27,18,13,29.80
2009,07,27,18,14,29.70
2009,07,27,18,15,29.80
2009,07,27,18,16,29.70
2009,07,27,18,17,29.70
2009,07,27,18,18,29.70
2009,07,27,18,19,29.60
2009,07,27,18,20,29.60
2009,07,27,18,21,29.50
2009,07,27,18,22,29.40
2009,07,27,18,23,29.40
2009,07,27,18,24,29.40
2009,07,27,18,25,29.40
2009,07,27,18,26,29.40
2009,07,27,18,27,29.40
2009,07,27,18,28,29.30
2009,07,27,18,29,29.30
2009,07,27,18,30,29.30
2009,07,27,18,31,29.20
2009,07,27,18,32,29.20
2009,07,27,18,33,29.20
2009,07,27,18,34,29.20
2009,07,27,18,35,29.30
2009,07,27,18,36,29.30
2009,07,27,18,37,29.30
2009,07,27,18,38,29.30
2009,07,27,18,39,29.40
2009,07,27,18,40,29.40
2009,07,27,18,41,29.40
2009,07,27,18,42,29.40
2009,07,27,18,43,29.30
2009,07,27,18,44,29.30
2009,07,27,18,45,29.30
2009,07,27,18,46,29.20
2009,07,27,18,47,29.20
2009,07,27,18,48,29.20
2009,07,27,18,49,29.20
2009,07,27,18,50,29.30
2009,07,27,18,51,29.30
2009,07,27,18,52,29.30
2009,07,27,18,53,29.30
2009,07,27,18,54,29.30
2009,07,27,18,55,29.30
2009,07,27,18,56,29.20
2009,07,27,18,57,29.20
2009,07,27,18,58,29.10
2009,07,27,18,59,29.00
2009,07,27,19,00,29.00
2009,07,27,19,01,28.90
2009,07,27,19,02,28.90
2009,07,27,19,03,28.90
2009,07,27,19,04,29.00
2009,07,27,19,05,29.00
2009,07,27,19,06,29.10
2009,07,27,19,07,29.20
2009,07,27,19,08,29.20
2009,07,27,19,09,29.20
2009,07,27,19,10,29.20
2009,07,27,19,11,29.20
2009,07,27,19,12,29.10
2009,07,27,19,13,29.10
2009,07,27,19,14,29.10
2009,07,27,19,15,29.10
2009,07,27,19,16,29.10
2009,07,27,19,17,29.10
2009,07,27,19,18,29.10
2009,07,27,19,19,29.10
2009,07,27,19,20,29.10
2009,07,27,19,21,29.10
2009,07,27,19,22,29.10
2009,07,27,19,23,29.20
2009,07,27,19,24,29.20
2009,07,27,19,25,29.10
2009,07,27,19,26,29.10
2009,07,27,19,27,29.10
2009,07,27,19,28,29.00
2009,07,27,19,29,28.90
2009,07,27,19,30,28.90
2009,07,27,19,31,28.90
2009,07,27,19,32,28.90
2009,07,27,19,33,28.90
2009,07,27,19,34,28.90
2009,07,27,19,35,28.90
2009,07,27,19,36,28.90
2009,07,27,19,37,28.90
2009,07,27,19,38,28.90
2009,07,27,19,39,28.90
2009,07,27,19,40,28.90
